Weather History for KMTW - January, 2014

Change the Weather History Date:

Thursday, January 16, 2014

  Actual Average Record
Temperature  
Mean Temperature 24 °F -  
Max Temperature 32 °F 25 °F 48 °F (1949)
Min Temperature 15 °F 8 °F -22 °F (1982)
Degree Days  
Heating Degree Days 42    
Moisture  
Dew Point 20 °F    
Average Humidity 86    
Maximum Humidity 93    
Minimum Humidity 77    
Precipitation  
Precipitation 0.00 in - - ()
Sea Level Pressure  
Sea Level Pressure 29.55 in    
Wind  
Wind Speed 13 mph (SW)    
Max Wind Speed 20 mph    
Max Gust Speed 26 mph    
Visibility 8 miles    
Events Snow    
Averages and records for this station are not official NWS values.
T = Trace of Precipitation, MM = Missing Value Source: NWS Daily Summary

Daily Weather History Graph

Daily Weather History Graph

Search for Another Location

Airport or City:

Trip Planner

Search our weather history database for the weather conditions in past years. The results will help you decide how hot, cold, wet, or windy it might be!

Date:

Astronomy

Jan. 16, 2014 Rise Set
Actual Time 7:22 AM CST 4:39 PM CST
Civil Twilight 6:49 AM CST 5:11 PM CST
Nautical Twilight 6:14 AM CST 5:47 PM CST
Astronomical Twilight 5:39 AM CST 6:21 PM CST
Moon 5:34 PM CST (1/16) 7:12 AM CST (1/16)
Length of Visible Light 10h 21m
Length of Day
9h 17m
Full, 100% of the Moon is Illuminated
Jan 16
Full
Jan 23
Last Quarter
Jan 30
New
Feb 6
First Quarter
Feb 14
Full

Hourly Weather History & Observations

Time (CST) Temp. Windchill Dew Point Humidity Pressure Visibility Wind Dir Wind Speed Gust Speed Precip Events Conditions
12:19 AM 15.8 °F 0.3 °F 12.2 °F 86% 29.64 in 5.0 mi South 16.1 mph - 0.00 in Snow Light Snow
12:56 AM 16.0 °F 0.6 °F 12.0 °F 84% 29.71 in 8.0 mi South 16.1 mph - 0.00 in Snow Light Snow
1:38 AM 17.6 °F 2.2 °F 14.0 °F 86% 29.61 in 2.5 mi South 17.3 mph - 0.00 in Snow Light Snow
1:53 AM 17.6 °F 2.7 °F 14.0 °F 86% 29.59 in 5.0 mi South 16.1 mph - 0.00 in Snow Light Snow
1:56 AM 17.1 °F 1.5 °F 14.0 °F 88% 29.67 in 5.0 mi South 17.3 mph - 0.00 in Snow Light Snow
2:25 AM 17.6 °F 3.2 °F 15.8 °F 93% 29.59 in 9.0 mi SSW 15.0 mph - 0.00 in Snow Light Snow
2:39 AM 17.6 °F 3.2 °F 15.8 °F 93% 29.58 in 9.0 mi South 15.0 mph - 0.00 in Snow Light Snow
2:56 AM 18.0 °F 4.2 °F 16.0 °F 92% 29.65 in 9.0 mi South 13.8 mph - 0.00 in Snow Light Snow
3:28 AM 19.4 °F 6.0 °F 15.8 °F 86% 29.55 in 2.5 mi SSW 13.8 mph - 0.00 in Snow Light Snow
3:35 AM 19.4 °F 6.0 °F 15.8 °F 86% 29.54 in 3.0 mi South 13.8 mph - 0.00 in Snow Light Snow
3:56 AM 19.0 °F 5.0 °F 17.1 °F 92% 29.60 in 8.0 mi South 15.0 mph - 0.00 in Snow Light Snow
4:12 AM 19.4 °F 6.0 °F 17.6 °F 93% 29.52 in 9.0 mi South 13.8 mph - 0.00 in Snow Light Snow
4:56 AM 21.0 °F 8.6 °F 17.1 °F 85% 29.57 in 9.0 mi South 12.7 mph - 0.00 in   Overcast
5:56 AM 21.9 °F 10.4 °F 18.0 °F 85% 29.55 in 10.0 mi SSW 11.5 mph - N/A   Overcast
6:56 AM 23.0 °F 11.1 °F 18.0 °F 81% 29.54 in 10.0 mi SSW 12.7 mph - N/A   Scattered Clouds
7:56 AM 24.1 °F 14.4 °F 18.0 °F 77% 29.54 in 10.0 mi SSW 9.2 mph - 0.00 in   Overcast
8:56 AM 24.1 °F 16.0 °F 19.9 °F 84% 29.55 in 3.0 mi SSW 6.9 mph - 0.00 in Snow Light Snow
9:56 AM 26.1 °F 16.2 °F 21.0 °F 81% 29.53 in 3.0 mi South 10.4 mph - 0.00 in Snow Light Snow
10:20 AM 26.6 °F 15.7 °F 21.2 °F 80% 29.45 in 1.8 mi South 12.7 mph - 0.00 in Snow Light Snow
10:46 AM 26.6 °F 17.5 °F 23.0 °F 86% 29.45 in 3.0 mi South 9.2 mph - 0.00 in Snow Light Snow
10:56 AM 27.0 °F 17.3 °F 23.0 °F 85% 29.52 in 9.0 mi SSW 10.4 mph - 0.00 in Snow Light Snow
11:56 AM 30.0 °F 20.0 °F 25.0 °F 82% 29.49 in 9.0 mi SSW 12.7 mph - 0.00 in Snow Light Snow
12:39 PM 30.2 °F 21.9 °F 26.6 °F 86% 29.41 in 10.0 mi SSW 9.2 mph - 0.00 in   Overcast
12:56 PM 30.9 °F 25.2 °F 26.1 °F 82% 29.48 in 10.0 mi South 5.8 mph - 0.00 in   Overcast
1:56 PM 32.0 °F 24.2 °F 26.1 °F 79% 29.47 in 9.0 mi South 9.2 mph - 0.00 in Snow Light Snow
2:56 PM 32.0 °F 25.6 °F 27.0 °F 82% 29.49 in 10.0 mi SSW 6.9 mph - 0.00 in   Overcast
3:56 PM 32.0 °F 28.7 °F 27.0 °F 82% 29.51 in 10.0 mi SSW 3.5 mph - N/A   Overcast
4:56 PM 30.9 °F 27.5 °F 27.0 °F 85% 29.52 in 10.0 mi South 3.5 mph - N/A   Overcast
5:56 PM 30.9 °F - 27.0 °F 85% 29.55 in 10.0 mi Calm Calm - 0.00 in   Overcast
6:56 PM 30.9 °F 24.3 °F 28.0 °F 89% 29.56 in 8.0 mi West 6.9 mph - 0.00 in   Overcast
7:42 PM 28.4 °F 17.5 °F 26.6 °F 93% 29.50 in 5.0 mi West 13.8 mph - 0.00 in Snow Light Snow
7:56 PM 28.0 °F 16.5 °F 25.0 °F 88% 29.57 in 5.0 mi West 15.0 mph - 0.00 in   Overcast
8:29 PM 26.6 °F 14.3 °F 24.8 °F 93% 29.52 in 10.0 mi West 16.1 mph 20.7 mph 0.00 in Snow Light Snow
8:52 PM 26.6 °F 14.3 °F 23.0 °F 86% 29.53 in 10.0 mi WNW 16.1 mph 20.7 mph 0.00 in   Overcast
8:56 PM 26.1 °F 14.5 °F 23.0 °F 88% 29.60 in 10.0 mi WNW 13.8 mph 20.7 mph 0.00 in   Overcast
9:16 PM 26.6 °F 14.3 °F 23.0 °F 86% 29.54 in 9.0 mi WNW 16.1 mph 19.6 mph 0.00 in Snow Light Snow
9:56 PM 23.0 °F 9.2 °F 19.0 °F 85% 29.63 in 7.0 mi WNW 17.3 mph 21.9 mph 0.00 in Snow Light Snow
10:56 PM 19.9 °F 4.3 °F 16.0 °F 85% 29.64 in 6.0 mi WNW 19.6 mph 26.5 mph 0.00 in Snow Light Snow
11:56 PM 18.0 °F 2.6 °F 12.9 °F 81% 29.66 in 9.0 mi WNW 17.3 mph 26.5 mph 0.00 in Snow Light Snow